This is the latest recevied weather packets stored in our database for station/object AD0YN. If no packets are shown the sender has not sent any weather packets the latest 10 day(s).
| Time | Temp. | Humidity | Pressure | Rain* | Wind** | Luminosity | Snow |
|---|---|---|---|---|---|---|---|
| 1778199615 | 19.44° C | 45% | 1009.9 hPa | 0 mm | - | 58 W/m² | - |
| 1778199310 | 19.44° C | 43% | 1009.8 hPa | 0 mm | - | 69 W/m² | - |
| 1778199007 | 19.44° C | 44% | 1009.7 hPa | 0 mm | - | 80 W/m² | - |
| 1778198703 | 19.44° C | 44% | 1009.9 hPa | 0 mm | - | 93 W/m² | - |
| 1778198400 | 20° C | 43% | 1009.9 hPa | 0 mm | - | 105 W/m² | - |
| 1778198096 | 20° C | 44% | 1009.9 hPa | 0 mm | - | 119 W/m² | - |
| 1778197794 | 20° C | 43% | 1010.2 hPa | 0 mm | - | 133 W/m² | - |
| 1778197490 | 20° C | 43% | 1010 hPa | 0 mm | - | 149 W/m² | - |
| 1778197187 | 20° C | 41% | 1010.1 hPa | 0 mm | - | 162 W/m² | - |
| 1778196884 | 20.56° C | 42% | 1010 hPa | 0 mm | - | 177 W/m² | - |
| 1778196583 | 20° C | 41% | 1010.2 hPa | 0 mm | - | 192 W/m² | - |
| 1778196278 | 20° C | 42% | 1010.2 hPa | 0 mm | - | 210 W/m² | - |
| 1778195976 | 20° C | 42% | 1010.4 hPa | 0 mm | - | 224 W/m² | - |
| 1778195672 | 20° C | 41% | 1010.2 hPa | 0 mm | - | 241 W/m² | - |
| 1778195369 | 20° C | 41% | 1010.3 hPa | 0 mm | - | 258 W/m² | - |
| 1778195066 | 20.56° C | 41% | 1010.4 hPa | 0 mm | - | 285 W/m² | - |
| 1778194767 | 20.56° C | 40% | 1010.5 hPa | 0 mm | - | 300 W/m² | - |
| 1778194463 | 20° C | 41% | 1010.5 hPa | 0 mm | - | 317 W/m² | - |
| 1778194159 | 20.56° C | 40% | 1010.8 hPa | 0 mm | - | 330 W/m² | - |
| 1778193855 | 20.56° C | 40% | 1010.8 hPa | 0 mm | - | 358 W/m² | - |
| 1778193552 | 20.56° C | 40% | 1010.7 hPa | 0 mm | - | 377 W/m² | - |
| 1778193248 | 20.56° C | 42% | 1010.7 hPa | 0 mm | - | 409 W/m² | - |
| 1778192945 | 20.56° C | 40% | 1011 hPa | 0 mm | - | 436 W/m² | - |
| 1778192641 | 20° C | 40% | 1011.1 hPa | 0 mm | - | 379 W/m² | - |
| 1778192338 | 20° C | 41% | 1011 hPa | 0 mm | - | 510 W/m² | - |
* Rain latest hour (hover to see other rain measurements)
** Current wind speed in m/s (hover to see current wind gust speed)